Location: Unspecified
(34.4950°S, 58.5160°W)
Time: 23:36:42
(UTC+00:00)

Cosmos 1777 Rocket - Pass Details

Date: 19 April 2026
Orbit: 753 x 771 km, 74.0° (Epoch: 16 May)

Event Time Altitude Azimuth Distance (km) Brightness Sun altitude
Exits shadow 08:36:05 31° 330° (NNW) 1,317 4.9 -22.2°
Maximum altitude 08:38:36 72° 252° (WSW) 805 3.8 -21.7°
Drops below altitude 10° 08:43:50 10° 167° (SSE) 2,308 6.6 -20.6°
Sets 08:46:14 0° 165° (SSE) 3,239 7.4 -20.1°
